TimeCST,TemperatureF,Dew PointF,Humidity,Sea Level PressureIn,VisibilityMPH,Wind Direction,Wind SpeedMPH,Gust SpeedMPH,PrecipitationIn,Events,Conditions,WindDirDegrees,DateUTC
12:15 AM,25.7,25.0,97,30.31,7.0,South,4.6,-,N/A,,Clear,180,2012-12-31 06:15:00
12:35 AM,26.2,25.5,97,30.30,7.0,South,5.8,-,N/A,,Clear,180,2012-12-31 06:35:00
12:55 AM,25.5,24.6,96,30.28,5.0,SSE,4.6,-,N/A,,Clear,150,2012-12-31 06:55:00
1:15 AM,26.6,25.7,96,30.28,7.0,SSE,4.6,-,N/A,,Clear,160,2012-12-31 07:15:00
1:35 AM,27.7,26.4,95,30.28,7.0,South,5.8,-,N/A,,Clear,170,2012-12-31 07:35:00
1:55 AM,27.5,25.9,94,30.28,7.0,South,6.9,-,N/A,,Clear,180,2012-12-31 07:55:00
2:15 AM,29.3,27.5,93,30.28,7.0,South,8.1,-,N/A,,Clear,180,2012-12-31 08:15:00
2:35 AM,29.8,28.0,93,30.29,7.0,South,8.1,-,N/A,,Clear,180,2012-12-31 08:35:00
2:55 AM,30.0,27.5,90,30.28,7.0,South,6.9,-,N/A,,Clear,170,2012-12-31 08:55:00
3:15 AM,29.8,27.5,91,30.27,7.0,South,6.9,-,N/A,,Clear,170,2012-12-31 09:15:00
3:35 AM,30.7,28.2,90,30.27,7.0,South,8.1,-,N/A,,Mostly Cloudy,180,2012-12-31 09:35:00
3:55 AM,31.1,28.0,88,30.27,10.0,South,8.1,-,N/A,,Scattered Clouds,190,2012-12-31 09:55:00
4:15 AM,30.9,28.2,90,30.27,7.0,South,5.8,-,N/A,,Clear,190,2012-12-31 10:15:00
4:35 AM,32.2,29.3,89,30.27,10.0,SSW,5.8,-,N/A,,Mostly Cloudy,200,2012-12-31 10:35:00
4:55 AM,34.0,29.3,83,30.26,7.0,South,5.8,-,N/A,,Overcast,190,2012-12-31 10:55:00
5:15 AM,34.2,29.3,82,30.27,7.0,SSW,6.9,-,N/A,,Overcast,200,2012-12-31 11:15:00
5:35 AM,34.5,29.3,81,30.27,10.0,SSW,8.1,-,N/A,,Overcast,200,2012-12-31 11:35:00
5:55 AM,34.3,29.7,83,30.25,7.0,South,9.2,-,N/A,,Overcast,190,2012-12-31 11:55:00
6:15 AM,34.2,30.0,85,30.25,7.0,South,9.2,-,N/A,,Overcast,190,2012-12-31 12:15:00
6:35 AM,34.7,30.0,83,30.25,10.0,South,10.4,-,N/A,,Overcast,190,2012-12-31 12:35:00
6:55 AM,34.7,30.2,84,30.23,10.0,South,10.4,-,N/A,,Overcast,180,2012-12-31 12:55:00
7:15 AM,35.2,30.2,82,30.24,10.0,South,10.4,-,N/A,,Overcast,190,2012-12-31 13:15:00
7:35 AM,35.8,30.2,80,30.23,10.0,South,10.4,16.1,N/A,,Overcast,190,2012-12-31 13:35:00
8:15 AM,35.6,31.5,85,30.23,7.0,South,4.6,-,N/A,Rain,Light Rain,180,2012-12-31 14:15:00
8:35 AM,35.6,32.0,87,30.22,7.0,Calm,Calm,-,N/A,,Overcast,0,2012-12-31 14:35:00
8:55 AM,35.1,32.0,89,30.21,7.0,SSE,6.9,-,N/A,,Overcast,150,2012-12-31 14:55:00
9:15 AM,35.1,32.0,89,30.21,7.0,SSE,8.1,-,N/A,,Light Drizzle,150,2012-12-31 15:15:00
9:35 AM,35.2,32.4,89,30.21,7.0,SSE,10.4,-,N/A,,Overcast,160,2012-12-31 15:35:00
9:55 AM,36.1,32.0,85,30.20,10.0,South,12.7,-,N/A,,Overcast,170,2012-12-31 15:55:00
10:15 AM,36.5,32.0,84,30.22,10.0,SSW,8.1,-,N/A,,Overcast,210,2012-12-31 16:15:00
10:35 AM,36.9,32.0,83,30.22,10.0,SSW,11.5,-,N/A,,Overcast,200,2012-12-31 16:35:00
10:55 AM,36.5,32.2,84,30.22,5.0,South,12.7,18.4,N/A,Snow,Light Snow,190,2012-12-31 16:55:00
11:15 AM,36.5,32.9,87,30.21,5.0,SW,11.5,-,N/A,Rain,Light Rain,220,2012-12-31 17:15:00
11:35 AM,36.0,33.3,90,30.21,2.5,SSW,10.4,-,0.01,Snow,Light Snow,210,2012-12-31 17:35:00
11:55 AM,35.6,33.3,91,30.20,2.0,SSW,11.5,-,0.01,Snow,Light Snow,210,2012-12-31 17:55:00
12:15 PM,35.6,33.4,92,30.18,1.8,SSW,9.2,-,N/A,Snow,Light Snow,210,2012-12-31 18:15:00
12:35 PM,36.3,33.8,91,30.16,5.0,SSW,6.9,-,N/A,Rain,Light Rain,200,2012-12-31 18:35:00
12:55 PM,36.5,33.8,90,30.15,7.0,SW,8.1,-,N/A,,Overcast,220,2012-12-31 18:55:00
1:15 PM,36.7,33.4,88,30.14,7.0,SW,4.6,-,N/A,,Overcast,220,2012-12-31 19:15:00
1:35 PM,36.7,33.4,88,30.13,7.0,South,8.1,-,N/A,,Overcast,190,2012-12-31 19:35:00
1:55 PM,36.1,33.4,90,30.14,7.0,South,6.9,-,N/A,,Mostly Cloudy,180,2012-12-31 19:55:00
2:15 PM,36.5,33.3,88,30.14,7.0,South,4.6,-,N/A,,Scattered Clouds,190,2012-12-31 20:15:00
2:35 PM,37.4,32.2,81,30.13,10.0,SSW,10.4,-,N/A,,Mostly Cloudy,210,2012-12-31 20:35:00
2:55 PM,37.4,32.2,81,30.13,7.0,South,5.8,-,N/A,,Overcast,190,2012-12-31 20:55:00
3:15 PM,36.0,32.9,89,30.13,7.0,South,3.5,-,N/A,,Overcast,190,2012-12-31 21:15:00
3:35 PM,37.0,32.4,83,30.14,5.0,SW,5.8,-,N/A,Rain,Light Rain,220,2012-12-31 21:35:00
3:55 PM,36.9,32.2,83,30.13,10.0,SSW,3.5,-,N/A,,Overcast,200,2012-12-31 21:55:00
4:15 PM,36.5,32.5,86,30.12,7.0,Calm,Calm,-,N/A,Rain,Light Rain,0,2012-12-31 22:15:00
4:35 PM,35.1,33.1,92,30.13,5.0,Calm,Calm,-,N/A,Rain,Light Rain,0,2012-12-31 22:35:00
4:55 PM,35.1,33.1,92,30.13,10.0,Calm,Calm,-,N/A,,Overcast,0,2012-12-31 22:55:00
5:15 PM,34.9,33.3,94,30.13,7.0,Calm,Calm,-,N/A,,Overcast,0,2012-12-31 23:15:00
5:35 PM,34.9,33.3,94,30.12,7.0,Calm,Calm,-,N/A,,Overcast,0,2012-12-31 23:35:00
5:55 PM,35.1,32.9,92,30.12,7.0,Calm,Calm,-,N/A,,Overcast,0,2012-12-31 23:55:00
6:15 PM,34.9,33.1,93,30.13,7.0,Calm,Calm,-,N/A,,Overcast,0,2013-01-01 00:15:00
6:55 PM,35.1,33.3,93,30.11,7.0,Calm,Calm,-,N/A,,Overcast,0,2013-01-01 00:55:00
7:15 PM,34.7,33.1,94,30.12,7.0,Calm,Calm,-,N/A,,Overcast,0,2013-01-01 01:15:00
7:35 PM,34.7,33.4,95,30.10,5.0,Calm,Calm,-,N/A,Rain,Light Rain,0,2013-01-01 01:35:00
7:55 PM,34.5,33.6,97,30.11,5.0,Calm,Calm,-,0.01,Rain,Light Rain,0,2013-01-01 01:55:00
8:35 PM,35.2,34.7,98,30.10,4.0,Calm,Calm,-,0.02,Rain,Rain,0,2013-01-01 02:35:00
8:55 PM,34.9,34.2,97,30.10,3.0,Calm,Calm,-,0.03,Rain,Light Rain,0,2013-01-01 02:55:00
9:15 PM,34.3,33.8,98,30.07,3.0,ENE,4.6,-,0.02,Rain,Rain,70,2013-01-01 03:15:00
9:35 PM,34.5,34.0,98,30.09,4.0,Calm,Calm,-,0.02,,Light Drizzle,0,2013-01-01 03:35:00
9:55 PM,34.5,33.8,97,30.07,3.0,East,4.6,-,0.02,,Overcast,100,2013-01-01 03:55:00
10:15 PM,34.7,34.3,99,30.07,2.5,East,4.6,-,N/A,,Overcast,80,2013-01-01 04:15:00
10:35 PM,34.7,34.0,97,30.08,2.5,Calm,Calm,-,N/A,,Overcast,0,2013-01-01 04:35:00
10:55 PM,34.2,33.8,99,30.09,2.5,Calm,Calm,-,N/A,,Overcast,0,2013-01-01 04:55:00
11:15 PM,34.2,33.8,99,30.09,1.2,Calm,Calm,-,N/A,,Drizzle,0,2013-01-01 05:15:00
11:35 PM,34.0,33.8,99,30.09,1.0,Calm,Calm,-,N/A,,Light Drizzle,0,2013-01-01 05:35:00
11:55 PM,34.0,33.8,99,30.08,0.8,Calm,Calm,-,N/A,,Overcast,0,2013-01-01 05:55:00